Location: Knowlton
(51.2333°N, 1.2667°E)
Time: 15:45:33
(UTC+00:00)

ZACube-1 - Visible Passes

Search period start: 28 November 2021 00:00
Search period end: 08 December 2021 00:00
Orbit: 583 x 665 km, 97.6° (Epoch: 27 November)

Date Brightness Start Highest point End Pass type
(mag) Time Alt. Az. Time Alt. Az. Time Alt. Az.
28 Nov ? 04:18:12 10° NNE 04:20:10 26° NNE 04:20:10 26° NNE visible
28 Nov ? 05:55:19 10° NNW 05:57:24 18° NW 05:57:24 18° NW visible
28 Nov ? 16:58:19 10° W 16:59:31 11° W 17:00:45 10° WNW visible
29 Nov ? 04:36:41 10° NNE 04:38:40 26° N 04:38:40 26° N visible
29 Nov ? 06:14:25 10° NNW 06:15:54 13° NW 06:15:54 13° NW visible
30 Nov ? 03:19:42 10° NE 03:19:57 11° NE 03:19:57 11° NE visible
30 Nov ? 04:55:14 10° N 04:57:11 25° N 04:57:11 25° N visible
01 Dec ? 03:37:47 10° NNE 03:38:27 13° NE 03:38:27 13° NE visible
01 Dec ? 05:13:52 10° N 05:15:42 22° NNW 05:15:42 22° NNW visible
02 Dec ? 03:56:03 10° NNE 03:56:58 16° NNE 03:56:58 16° NNE visible
02 Dec ? 05:32:35 10° N 05:34:13 19° NNW 05:34:13 19° NNW visible
02 Dec ? 16:34:01 10° SW 16:36:57 18° W 16:39:57 10° NW visible
03 Dec ? 04:14:25 10° NNE 04:15:30 17° NNE 04:15:30 17° NNE visible
03 Dec ? 05:51:26 10° NNW 05:52:44 15° NNW 05:52:44 15° NNW visible
03 Dec ? 16:53:56 10° WSW 16:55:40 12° W 16:57:26 10° WNW visible
04 Dec ? 04:32:53 10° NNE 04:34:02 18° NNE 04:34:02 18° NNE visible
04 Dec ? 06:10:29 10° NNW 06:11:16 12° NNW 06:11:16 12° NNW visible
05 Dec ? 04:51:25 10° N 04:52:34 18° N 04:52:34 18° N visible
06 Dec ? 05:10:02 10° N 05:11:07 17° N 05:11:07 17° N visible
07 Dec ? 03:52:16 10° NNE 03:52:25 11° NNE 03:52:25 11° NNE visible
07 Dec ? 05:28:44 10° N 05:29:39 15° NNW 05:29:39 15° NNW visible
07 Dec ? 16:29:55 10° SW 16:33:05 19° W 16:36:18 10° NW visible
